Location: Home
(42.5358°N, 72.7383°W)
Time: 05:35:45
(UTC-05:00)

S-56A Canister/Altair - Pass Details

Date: 04 December 2021
Orbit: 633 x 2499 km, 38.9° (Epoch: 19 January)

Event Time Altitude Azimuth Distance (km) Brightness Sun altitude
Exits shadow 04:22:36 27° 167° (SSE) 1,330 8.8 -29.1°
Drops below altitude 10° 04:25:08 10° 139° (SE) 2,063 10.3 -28.6°
Sets 04:27:26 0° 130° (SE) 2,921 11.3 -28.2°
